| time (UTC) | temp F | wind direction | speed MPH | gust MPH | rain 1hr in | rain 24hr in | rain mn in | humidity % | barometer mb |
| 20260505022516 | 61 | 0.0 | 0.0 | 0.00 | 0.00 | 0.00 | 66 | 1023.5 | |
| 20260505022016 | 61 | 0.0 | 0.0 | 0.00 | 0.00 | 0.00 | 66 | 1023.4 | |
| 20260505021516 | 61 | 0.0 | 0.0 | 0.00 | 0.00 | 0.00 | 66 | 1023.5 | |
| 20260505021016 | 62 | 0.0 | 0.0 | 0.00 | 0.00 | 0.00 | 66 | 1023.5 | |
| 20260505020516 | 62 | 0.0 | 0.0 | 0.00 | 0.00 | 0.00 | 65 | 1023.4 | |
| 20260505020016 | 62 | 0.0 | 0.0 | 0.00 | 0.00 | 0.00 | 65 | 1023.4 | |
| 20260505015516 | 62 | 0.0 | 0.0 | 0.00 | 0.00 | 0.00 | 65 | 1023.5 | |
| 20260505015016 | 62 | 0.0 | 0.0 | 0.00 | 0.00 | 0.00 | 65 | 1023.5 | |
| 20260505014616 | 62 | 0.0 | 0.0 | 0.00 | 0.00 | 0.00 | 65 | 1023.3 | |
| 20260505014016 | 63 | 0.0 | 0.0 | 0.00 | 0.00 | 0.00 | 64 | 1023.3 | |
| 20260505013516 | 63 | 0.0 | 0.0 | 0.00 | 0.00 | 0.00 | 64 | 1023.2 | |
| 20260505013016 | 63 | 0.0 | 0.0 | 0.00 | 0.00 | 0.00 | 64 | 1023.2 | |
| 20260505012516 | 63 | 0.0 | 0.0 | 0.00 | 0.00 | 0.00 | 64 | 1023.1 | |
| 20260505012016 | 63 | 0.0 | 0.0 | 0.00 | 0.00 | 0.00 | 63 | 1023.0 | |
| 20260505011516 | 63 | 0.0 | 0.0 | 0.00 | 0.00 | 0.00 | 62 | 1022.9 | |
| 20260505011036 | 63 | 0.0 | 1.0 | 0.00 | 0.00 | 0.00 | 62 | 1022.9 | |
| 20260505010536 | 63 | 0.0 | 0.0 | 0.00 | 0.00 | 0.00 | 62 | 1022.8 | |
| 20260505010056 | 63 | 0.0 | 0.0 | 0.00 | 0.00 | 0.00 | 61 | 1022.7 | |
| 20260505005536 | 64 | 0.0 | 0.0 | 0.00 | 0.00 | 0.00 | 61 | 1022.7 | |
| 20260505005016 | 64 | 0.0 | 0.0 | 0.00 | 0.00 | 0.00 | 60 | 1022.5 | |
| 20260505004516 | 64 | 0.0 | 1.0 | 0.00 | 0.00 | 0.00 | 60 | 1022.5 | |
| 20260505004016 | 64 | 0.0 | 1.0 | 0.00 | 0.00 | 0.00 | 60 | 1022.4 | |
| 20260505003516 | 64 | 0.0 | 0.0 | 0.00 | 0.00 | 0.00 | 59 | 1022.4 | |
| 20260505003016 | 64 | 0.0 | 1.0 | 0.00 | 0.00 | 0.00 | 59 | 1022.4 | |
| 20260505002536 | 65 | 0.0 | 1.0 | 0.00 | 0.00 | 0.00 | 57 | 1022.5 | |
| 20260505002036 | 65 | 0.0 | 0.0 | 0.00 | 0.00 | 0.00 | 55 | 1022.6 | |
| 20260505001516 | 66 | 0.0 | 0.0 | 0.00 | 0.00 | 0.00 | 54 | 1022.6 | |
| 20260505001016 | 66 | 0.0 | 0.0 | 0.00 | 0.00 | 0.00 | 52 | 1022.7 | |
| 20260505000516 | 67 | 0.0 | 0.0 | 0.00 | 0.00 | 0.00 | 51 | 1022.7 | |
| 20260505000036 | 67 | 0.0 | 0.0 | 0.00 | 0.00 | 0.00 | 50 | 1022.6 | |
| 20260504235516 | 68 | 0.0 | 4.0 | 0.00 | 0.00 | 0.00 | 49 | 1022.7 | |
| 20260504235016 | 68 | 0.0 | 0.0 | 0.00 | 0.00 | 0.00 | 48 | 1022.5 | |
| 20260504234516 | 69 | 0.0 | 0.0 | 0.00 | 0.00 | 0.00 | 47 | 1022.5 | |
| 20260504234036 | 69 | 0.0 | 0.0 | 0.00 | 0.00 | 0.00 | 46 | 1022.4 | |
| 20260504233516 | 70 | 0.0 | 0.0 | 0.00 | 0.00 | 0.00 | 45 | 1022.4 | |
| 20260504233016 | 70 | 0.0 | 0.0 | 0.00 | 0.00 | 0.00 | 44 | 1022.3 | |
| 20260504232536 | 70 | 0.0 | 0.0 | 0.00 | 0.00 | 0.00 | 45 | 1022.1 | |
| 20260504232016 | 71 | 0.0 | 0.0 | 0.00 | 0.00 | 0.00 | 43 | 1022.1 | |
| 20260504231516 | 71 | 0.0 | 1.0 | 0.00 | 0.00 | 0.00 | 43 | 1022.1 | |
| 20260504231016 | 71 | 0.0 | 1.0 | 0.00 | 0.00 | 0.00 | 43 | 1022.1 | |
| 20260504230516 | 72 | 0.0 | 0.0 | 0.00 | 0.00 | 0.00 | 43 | 1022.2 | |
| 20260504230018 | 72 | 0.0 | 4.0 | 0.00 | 0.00 | 0.00 | 42 | 1022.3 | |
| 20260504225516 | 72 | 0.0 | 1.0 | 0.00 | 0.00 | 0.00 | 43 | 1022.4 | |
| 20260504225056 | 72 | 0.0 | 1.0 | 0.00 | 0.00 | 0.00 | 42 | 1022.4 | |
| 20260504224516 | 72 | 0.0 | 2.0 | 0.00 | 0.00 | 0.00 | 41 | 1022.3 | |
| 20260504224016 | 72 | 0.0 | 1.0 | 0.00 | 0.00 | 0.00 | 41 | 1022.4 | |
| 20260504223516 | 72 | 0.0 | 1.0 | 0.00 | 0.00 | 0.00 | 41 | 1022.4 | |
| 20260504223036 | 72 | 0.0 | 1.0 | 0.00 | 0.00 | 0.00 | 42 | 1022.5 | |
| 20260504222516 | 73 | 0.0 | 1.0 | 0.00 | 0.00 | 0.00 | 40 | 1022.5 | |
| 20260504222016 | 73 | 0 | 1.0 | 4.0 | 0.00 | 0.00 | 0.00 | 40 | 1022.5 |
| 20260504221536 | 73 | 0.0 | 3.0 | 0.00 | 0.00 | 0.00 | 40 | 1022.5 | |
| 20260504221016 | 73 | 158 | 1.0 | 4.0 | 0.00 | 0.00 | 0.00 | 39 | 1022.4 |
| 20260504220516 | 73 | 0.0 | 1.0 | 0.00 | 0.00 | 0.00 | 40 | 1022.5 | |
| 20260504220016 | 73 | 0.0 | 3.0 | 0.00 | 0.00 | 0.00 | 40 | 1022.5 | |
| 20260504215516 | 73 | 0.0 | 2.0 | 0.00 | 0.00 | 0.00 | 40 | 1022.5 | |
| 20260504215016 | 74 | 0.0 | 3.0 | 0.00 | 0.00 | 0.00 | 41 | 1022.5 | |
| 20260504214516 | 74 | 0.0 | 3.0 | 0.00 | 0.00 | 0.00 | 41 | 1022.5 | |
| 20260504214016 | 74 | 0.0 | 3.0 | 0.00 | 0.00 | 0.00 | 41 | 1022.5 | |
| 20260504213516 | 74 | 0.0 | 1.0 | 0.00 | 0.00 | 0.00 | 42 | 1022.6 | |
| 20260504213016 | 74 | 0.0 | 3.0 | 0.00 | 0.00 | 0.00 | 39 | 1022.5 | |
| 20260504212536 | 74 | 0.0 | 2.0 | 0.00 | 0.00 | 0.00 | 41 | 1022.5 | |
| 20260504212016 | 74 | 0.0 | 1.0 | 0.00 | 0.00 | 0.00 | 42 | 1022.6 | |
| 20260504211536 | 74 | 0.0 | 1.0 | 0.00 | 0.00 | 0.00 | 38 | 1022.4 | |
| 20260504211016 | 74 | 0.0 | 1.0 | 0.00 | 0.00 | 0.00 | 38 | 1022.4 | |
| 20260504210516 | 74 | 0.0 | 3.0 | 0.00 | 0.00 | 0.00 | 39 | 1022.4 | |
| 20260504210016 | 74 | 0.0 | 1.0 | 0.00 | 0.00 | 0.00 | 39 | 1022.5 | |
| 20260504205516 | 75 | 0.0 | 1.0 | 0.00 | 0.00 | 0.00 | 38 | 1022.5 | |
| 20260504205016 | 75 | 0.0 | 1.0 | 0.00 | 0.00 | 0.00 | 35 | 1022.6 | |
| 20260504204536 | 75 | 0.0 | 1.0 | 0.00 | 0.00 | 0.00 | 35 | 1022.5 | |
| 20260504204036 | 75 | 0.0 | 2.0 | 0.00 | 0.00 | 0.00 | 34 | 1022.7 | |
| 20260504203516 | 75 | 0.0 | 4.0 | 0.00 | 0.00 | 0.00 | 35 | 1022.6 | |
| 20260504203016 | 75 | 113 | 1.0 | 6.0 | 0.00 | 0.00 | 0.00 | 33 | 1022.6 |
| 20260504202516 | 75 | 293 | 1.0 | 4.0 | 0.00 | 0.00 | 0.00 | 34 | 1022.8 |
| 20260504202016 | 76 | 293 | 1.0 | 2.0 | 0.00 | 0.00 | 0.00 | 34 | 1022.7 |
| 20260504201536 | 76 | 0 | 1.0 | 4.0 | 0.00 | 0.00 | 0.00 | 34 | 1022.7 |
| 20260504201016 | 76 | 0.0 | 3.0 | 0.00 | 0.00 | 0.00 | 36 | 1022.7 | |
| 20260504200516 | 76 | 113 | 2.0 | 8.0 | 0.00 | 0.00 | 0.00 | 33 | 1022.8 |
| 20260504200016 | 76 | 113 | 1.0 | 4.0 | 0.00 | 0.00 | 0.00 | 34 | 1022.9 |
| 20260504195516 | 75 | 0.0 | 4.0 | 0.00 | 0.00 | 0.00 | 38 | 1022.8 | |
| 20260504195016 | 75 | 338 | 1.0 | 3.0 | 0.00 | 0.00 | 0.00 | 34 | 1022.8 |
| 20260504194516 | 75 | 135 | 1.0 | 5.0 | 0.00 | 0.00 | 0.00 | 33 | 1022.8 |
| 20260504194016 | 75 | 270 | 1.0 | 3.0 | 0.00 | 0.00 | 0.00 | 34 | 1022.9 |
| 20260504193516 | 75 | 23 | 1.0 | 3.0 | 0.00 | 0.00 | 0.00 | 37 | 1022.9 |
| 20260504193017 | 75 | 0.0 | 4.0 | 0.00 | 0.00 | 0.00 | 34 | 1023.1 | |
| 20260504192536 | 75 | 0.0 | 3.0 | 0.00 | 0.00 | 0.00 | 37 | 1023.1 | |
| 20260504192036 | 75 | 0.0 | 2.0 | 0.00 | 0.00 | 0.00 | 35 | 1023.3 | |
| 20260504191516 | 75 | 135 | 2.0 | 5.0 | 0.00 | 0.00 | 0.00 | 34 | 1023.3 |
| 20260504191016 | 75 | 0.0 | 2.0 | 0.00 | 0.00 | 0.00 | 35 | 1023.3 | |
| 20260504190516 | 75 | 0.0 | 2.0 | 0.00 | 0.00 | 0.00 | 34 | 1023.5 | |
| 20260504190016 | 75 | 0.0 | 2.0 | 0.00 | 0.00 | 0.00 | 36 | 1023.4 | |
| 20260504185516 | 75 | 0 | 1.0 | 3.0 | 0.00 | 0.00 | 0.00 | 37 | 1023.5 |
| 20260504185016 | 74 | 113 | 2.0 | 6.0 | 0.00 | 0.00 | 0.00 | 36 | 1023.5 |
| 20260504184516 | 74 | 135 | 2.0 | 7.0 | 0.00 | 0.00 | 0.00 | 34 | 1023.6 |
| 20260504184016 | 74 | 135 | 1.0 | 5.0 | 0.00 | 0.00 | 0.00 | 39 | 1023.6 |
| 20260504183516 | 74 | 338 | 1.0 | 4.0 | 0.00 | 0.00 | 0.00 | 37 | 1023.6 |
| 20260504183016 | 74 | 0.0 | 1.0 | 0.00 | 0.00 | 0.00 | 37 | 1023.7 | |
| 20260504182516 | 74 | 135 | 1.0 | 5.0 | 0.00 | 0.00 | 0.00 | 37 | 1023.7 |
| 20260504182016 | 73 | 135 | 1.0 | 5.0 | 0.00 | 0.00 | 0.00 | 40 | 1023.8 |
| 20260504181536 | 73 | 0.0 | 2.0 | 0.00 | 0.00 | 0.00 | 39 | 1023.9 | |
| 20260504181016 | 72 | 0.0 | 4.0 | 0.00 | 0.00 | 0.00 | 42 | 1023.9 | |
| 20260504180536 | 72 | 113 | 1.0 | 4.0 | 0.00 | 0.00 | 0.00 | 38 | 1024.0 |
| 20260504180016 | 72 | 0.0 | 1.0 | 0.00 | 0.00 | 0.00 | 39 | 1024.1 | |
| 20260504175516 | 72 | 0.0 | 2.0 | 0.00 | 0.00 | 0.00 | 42 | 1024.1 | |
| 20260504175016 | 72 | 135 | 1.0 | 4.0 | 0.00 | 0.00 | 0.00 | 38 | 1024.3 |
| 20260504174516 | 72 | 0.0 | 1.0 | 0.00 | 0.00 | 0.00 | 38 | 1024.4 | |
| 20260504174016 | 72 | 0.0 | 1.0 | 0.00 | 0.00 | 0.00 | 40 | 1024.5 | |
| 20260504173516 | 72 | 270 | 1.0 | 6.0 | 0.00 | 0.00 | 0.00 | 38 | 1024.5 |
| 20260504173016 | 72 | 135 | 1.0 | 3.0 | 0.00 | 0.00 | 0.00 | 40 | 1024.5 |
| 20260504172536 | 72 | 0.0 | 2.0 | 0.00 | 0.00 | 0.00 | 40 | 1024.6 | |
| 20260504172016 | 72 | 0.0 | 3.0 | 0.00 | 0.00 | 0.00 | 38 | 1024.8 | |
| 20260504171516 | 72 | 0.0 | 2.0 | 0.00 | 0.00 | 0.00 | 36 | 1024.8 | |
| 20260504171036 | 72 | 270 | 1.0 | 4.0 | 0.00 | 0.00 | 0.00 | 37 | 1025.0 |
| 20260504170516 | 72 | 293 | 1.0 | 2.0 | 0.00 | 0.00 | 0.00 | 39 | 1025.1 |
| 20260504151016 | 71 | 270 | 1.0 | 3.0 | 0.00 | 0.00 | 0.00 | 42 | 1025.9 |
| 20260504150516 | 71 | 0.0 | 1.0 | 0.00 | 0.00 | 0.00 | 42 | 1026.0 | |
| 20260504141016 | 66 | 0.0 | 1.0 | 0.00 | 0.00 | 0.00 | 53 | 1026.2 | |
| 20260504140516 | 65 | 0.0 | 1.0 | 0.00 | 0.00 | 0.00 | 51 | 1026.3 | |
| 20260504130516 | 58 | 0.0 | 1.0 | 0.00 | 0.00 | 0.00 | 63 | 1026.5 | |
| 20260504110516 | 46 | 0.0 | 0.0 | 0.00 | 0.00 | 0.00 | 78 | 1026.9 | |
| 20260504100536 | 47 | 0.0 | 0.0 | 0.00 | 0.00 | 0.00 | 74 | 1026.6 | |
| 20260504081516 | 49 | 0.0 | 0.0 | 0.00 | 0.00 | 0.00 | 70 | 1027.0 | |
| 20260504081016 | 49 | 0.0 | 1.0 | 0.00 | 0.00 | 0.00 | 71 | 1027.1 | |
| 20260504080515 | 49 | 0.0 | 0.0 | 0.00 | 0.00 | 0.00 | 71 | 1027.1 | |
| 20260504050536 | 42 | 0.0 | 0.0 | 0.00 | 0.00 | 0.00 | 83 | 1026.9 | |
| 20260504050016 | 42 | 0.0 | 0.0 | 0.00 | 0.00 | 0.00 | 84 | 1026.9 | |
| 20260504045516 | 42 | 0.0 | 0.0 | 0.00 | 0.00 | 0.00 | 84 | 1026.9 | |
| 20260504045056 | 42 | 0.0 | 0.0 | 0.00 | 0.00 | 0.00 | 83 | 1026.8 | |
| 20260504044536 | 42 | 0.0 | 0.0 | 0.00 | 0.00 | 0.00 | 83 | 1026.9 | |
| 20260504044016 | 43 | 0.0 | 0.0 | 0.00 | 0.00 | 0.00 | 83 | 1026.7 | |
| 20260504043516 | 43 | 0.0 | 0.0 | 0.00 | 0.00 | 0.00 | 83 | 1026.9 | |
| 20260504043015 | 43 | 0.0 | 0.0 | 0.00 | 0.00 | 0.00 | 83 | 1026.8 | |
| 20260504042516 | 43 | 0.0 | 0.0 | 0.00 | 0.00 | 0.00 | 84 | 1026.9 | |
| 20260504042016 | 43 | 0.0 | 0.0 | 0.00 | 0.00 | 0.00 | 84 | 1026.9 | |
| 20260504041515 | 43 | 0.0 | 0.0 | 0.00 | 0.00 | 0.00 | 84 | 1026.9 | |
| 20260504041015 | 43 | 0.0 | 0.0 | 0.00 | 0.00 | 0.00 | 83 | 1026.8 | |
| 20260504040515 | 43 | 0.0 | 0.0 | 0.00 | 0.00 | 0.00 | 84 | 1026.8 | |
| 20260504040036 | 43 | 0.0 | 0.0 | 0.00 | 0.00 | 0.00 | 83 | 1026.8 | |
| 20260504035516 | 43 | 0.0 | 0.0 | 0.00 | 0.00 | 0.00 | 84 | 1026.9 | |
| 20260504035016 | 43 | 0.0 | 0.0 | 0.00 | 0.00 | 0.00 | 84 | 1026.9 | |
| 20260504034516 | 43 | 0.0 | 0.0 | 0.00 | 0.00 | 0.00 | 84 | 1026.9 | |
| 20260504034016 | 43 | 0.0 | 0.0 | 0.00 | 0.00 | 0.00 | 83 | 1026.9 | |
| 20260504033516 | 43 | 0.0 | 0.0 | 0.00 | 0.00 | 0.00 | 83 | 1026.9 | |
| 20260504033016 | 43 | 0.0 | 0.0 | 0.00 | 0.00 | 0.00 | 84 | 1026.9 | |
| 20260504032516 | 43 | 0.0 | 0.0 | 0.00 | 0.00 | 0.00 | 84 | 1026.9 | |
| 20260504032016 | 43 | 0.0 | 0.0 | 0.00 | 0.00 | 0.00 | 84 | 1026.9 | |
| 20260504031516 | 43 | 0.0 | 0.0 | 0.00 | 0.00 | 0.00 | 84 | 1026.9 | |
| 20260504031016 | 43 | 0.0 | 0.0 | 0.00 | 0.00 | 0.00 | 84 | 1026.7 | |
| 20260504030517 | 43 | 0.0 | 0.0 | 0.00 | 0.00 | 0.00 | 84 | 1026.8 | |
| 20260504030016 | 43 | 0.0 | 0.0 | 0.00 | 0.00 | 0.00 | 83 | 1026.7 | |
| 20260504025516 | 43 | 0.0 | 0.0 | 0.00 | 0.00 | 0.00 | 83 | 1026.6 | |
| 20260504025036 | 44 | 0.0 | 0.0 | 0.00 | 0.00 | 0.00 | 83 | 1026.6 | |
| 20260504024516 | 44 | 0.0 | 0.0 | 0.00 | 0.00 | 0.00 | 82 | 1026.7 | |
| 20260504024016 | 44 | 0.0 | 0.0 | 0.00 | 0.00 | 0.00 | 82 | 1026.6 | |
| 20260504023516 | 44 | 0.0 | 0.0 | 0.00 | 0.00 | 0.00 | 82 | 1026.7 | |
| 20260504023016 | 44 | 0.0 | 0.0 | 0.00 | 0.00 | 0.00 | 82 | 1026.6 |